GW5622 Weather Reports


time (UTC)temp
F
wind
direction
speed
knots
gust
knots
rain 1hr
in
rain 24hr
in
rain mn
in
humidity
%
barometer
mb
20260504050511 59 223 3.5 15.6 0.00 0.00 0.00 37 998.4
20260504045507 59 200 6.1 13.9 0.00 0.00 0.00 37 998.7
20260504045003 59 227 6.1 13.9 0.00 0.00 0.00 37 998.7
20260504044508 58 200 5.2 13.9 0.00 0.00 0.00 37 998.9
20260504044005 58 195 3.5 13.9 0.00 0.00 0.00 37 999.0
20260504043504 58 198 4.3 13.9 0.00 0.00 0.00 37 999.0
20260504043014 58 206 5.2 13.9 0.00 0.00 0.00 37 999.1
20260504042508 58 213 5.2 13.0 0.00 0.00 0.00 37 999.2
20260504042008 58 219 3.5 13.0 0.00 0.00 0.00 36 999.3
20260504041519 58 213 5.2 13.9 0.00 0.00 0.00 36 999.4
20260504041008 58 178 5.2 13.0 0.00 0.00 0.00 36 999.5
20260504040508 58 203 4.3 14.8 0.00 0.00 0.00 36 999.7
20260504040029 58 221 7.0 14.8 0.00 0.00 0.00 36 999.7
20260504035507 59 179 4.3 13.0 0.00 0.00 0.00 36 1000.0
20260504035011 59 231 3.5 13.0 0.00 0.00 0.00 36 1000.2
20260504034537 58 198 6.1 13.0 0.00 0.00 0.00 36 1000.3
20260504034004 58 192 5.2 12.2 0.00 0.00 0.00 36 1000.4
20260504033503 58 209 5.2 9.6 0.00 0.00 0.00 36 1000.6
20260504033009 58 238 5.2 9.6 0.00 0.00 0.00 36 1000.7
20260504032506 58 212 3.5 9.6 0.00 0.00 0.00 36 1000.8
20260504032005 58 186 2.6 10.4 0.00 0.00 0.00 36 1001.0
20260504031513 59 196 4.3 10.4 0.00 0.00 0.00 35 1001.1
20260504031007 59 184 3.5 9.6 0.00 0.00 0.00 35 1001.4
20260504030509 59 186 3.5 7.8 0.00 0.00 0.00 34 1001.5
20260504030018 59 102 3.5 8.7 0.00 0.00 0.00 34 1001.7
20260504025508 59 191 4.3 8.7 0.00 0.00 0.00 34 1001.8
20260504025007 59 163 2.6 9.6 0.00 0.00 0.00 34 1001.8
20260504024522 60 140 3.5 9.6 0.00 0.00 0.00 34 1002.0
20260504024010 60 195 3.5 11.3 0.00 0.00 0.00 34 1002.0
20260504023508 60 198 4.3 11.3 0.00 0.00 0.00 34 1002.2
20260504023006 60 202 3.5 8.7 0.00 0.00 0.00 34 1002.2
20260504022504 60 200 3.5 8.7 0.00 0.00 0.00 34 1002.3
20260504022006 60 213 2.6 7.0 0.00 0.00 0.00 34 1002.4
20260504021513 60 183 3.5 8.7 0.00 0.00 0.00 33 1002.6
20260504021005 61 178 2.6 10.4 0.00 0.00 0.00 33 1002.6
20260504020506 61 171 5.2 10.4 0.00 0.00 0.00 32 1002.8
20260504020016 61 201 2.6 7.8 0.00 0.00 0.00 33 1002.8
20260504015509 61 182 3.5 7.8 0.00 0.00 0.00 32 1002.9
20260504015010 62 212 4.3 7.8 0.00 0.00 0.00 32 1003.0
20260504014524 62 184 3.5 7.0 0.00 0.00 0.00 31 1003.1
20260504014009 62 202 3.5 7.0 0.00 0.00 0.00 31 1003.3
20260504013508 62 199 4.3 7.8 0.00 0.00 0.00 31 1003.4
20260504013026 62 209 2.6 11.3 0.00 0.00 0.00 31 1003.4
20260504012510 62 194 3.5 11.3 0.00 0.00 0.00 31 1003.5
20260504012005 62 217 2.6 7.8 0.00 0.00 0.00 30 1003.7
20260504011509 63 197 2.6 7.8 0.00 0.00 0.00 30 1003.8
20260504011006 63 208 2.6 6.1 0.00 0.00 0.00 30 1003.9
20260504010505 63 242 2.6 8.7 0.00 0.00 0.00 30 1004.0
20260504010015 63 213 1.7 8.7 0.00 0.00 0.00 30 1004.2
20260504005507 63 207 4.3 7.8 0.00 0.00 0.00 29 1004.3
20260504005007 63 225 2.6 5.2 0.00 0.00 0.00 29 1004.3
20260504004523 64 233 2.6 5.2 0.00 0.00 0.00 29 1004.4
20260504004008 64 236 2.6 5.2 0.00 0.00 0.00 28 1004.5
20260504003508 64 236 2.6 5.2 0.00 0.00 0.00 28 1004.5
20260504003024 64 243 1.7 5.2 0.00 0.00 0.00 29 1004.6
20260504002509 64 244 3.5 9.6 0.00 0.00 0.00 28 1004.6
20260504002009 64 240 3.5 9.6 0.00 0.00 0.00 28 1004.7
20260504001526 64 253 3.5 9.6 0.00 0.00 0.00 28 1004.9
20260504001005 65 229 2.6 9.6 0.00 0.00 0.00 28 1005.0
20260504000508 65 249 3.5 6.1 0.00 0.00 0.00 28 1005.2
20260504000013 65 237 2.6 8.7 0.00 0.00 0.00 27 1005.3
20260503235508 65 253 4.3 10.4 0.00 0.00 0.00 27 1005.4
20260503235008 65 246 3.5 10.4 0.00 0.00 0.00 27 1005.5
20260503234522 65 240 3.5 7.8 0.00 0.00 0.00 27 1005.6
20260503234005 66 226 3.5 7.8 0.00 0.00 0.00 27 1005.6
20260503233508 66 245 2.6 11.3 0.00 0.00 0.00 28 1005.8
20260503233024 65 256 5.2 11.3 0.00 0.00 0.00 27 1005.9
20260503232509 65 255 3.5 11.3 0.00 0.00 0.00 27 1005.9
20260503232008 66 302 5.2 12.2 0.00 0.00 0.00 27 1006.1
20260503231541 66 237 7.0 12.2 0.00 0.00 0.00 27 1006.1
20260503231009 66 283 6.1 12.2 0.00 0.00 0.00 27 1006.1
20260503230505 66 268 7.0 11.3 0.00 0.00 0.00 27 1006.2
20260503230013 66 273 4.3 8.7 0.00 0.00 0.00 28 1006.2
20260503225505 66 233 2.6 10.4 0.00 0.00 0.00 27 1006.1
20260503225009 66 269 3.5 10.4 0.00 0.00 0.00 28 1006.2
20260503224528 66 244 1.7 7.0 0.00 0.00 0.00 27 1006.1
20260503224009 65 254 2.6 12.2 0.00 0.00 0.00 28 1006.3
20260503223510 66 248 5.2 12.2 0.00 0.00 0.00 27 1006.4
20260503223024 66 268 3.5 10.4 0.00 0.00 0.00 28 1006.3
20260503222509 66 229 6.1 10.4 0.00 0.00 0.00 26 1006.5
20260503222012 66 250 5.2 9.6 0.00 0.00 0.00 27 1006.6
20260503221503 66 249 4.3 12.2 0.00 0.00 0.00 27 1006.7
20260503221005 66 317 5.2 12.2 0.00 0.00 0.00 26 1006.7
20260503220506 66 325 7.0 12.2 0.00 0.00 0.00 27 1006.7
20260503220012 66 251 6.1 13.9 0.00 0.00 0.00 27 1006.8
20260503215505 66 312 7.8 13.9 0.00 0.00 0.00 26 1006.9
20260503215006 66 275 6.1 14.8 0.00 0.00 0.00 28 1006.9
20260503214514 66 291 8.7 14.8 0.00 0.00 0.00 27 1007.0
20260503214008 66 302 7.0 11.3 0.00 0.00 0.00 27 1007.0
20260503213509 66 256 5.2 12.2 0.00 0.00 0.00 28 1007.1
20260503213018 66 319 7.0 12.2 0.00 0.00 0.00 27 1007.2
20260503212507 65 270 5.2 7.8 0.00 0.00 0.00 28 1007.2
20260503212007 65 252 3.5 10.4 0.00 0.00 0.00 29 1007.2
20260503211525 65 247 4.3 13.0 0.00 0.00 0.00 28 1007.3
20260503211010 65 277 5.2 13.0 0.00 0.00 0.00 29 1007.3
20260503210506 65 300 6.1 11.3 0.00 0.00 0.00 28 1007.4
20260503210016 65 338 4.3 10.4 0.00 0.00 0.00 29 1007.5
20260503205508 65 318 5.2 10.4 0.00 0.00 0.00 27 1007.6
20260503205007 65 307 0.9 10.4 0.00 0.00 0.00 29 1007.6
20260503204512 65 254 4.3 12.2 0.00 0.00 0.00 29 1007.7
20260503204007 64 309 8.7 13.0 0.00 0.00 0.00 28 1007.8
20260503203507 65 229 6.1 13.0 0.00 0.00 0.00 27 1007.9
20260503203022 65 319 5.2 12.2 0.00 0.00 0.00 29 1008.0
20260503202508 64 330 5.2 13.0 0.00 0.00 0.00 30 1008.1
20260503202011 63 306 8.7 13.0 0.00 0.00 0.00 29 1008.1
20260503201525 63 267 6.1 13.0 0.00 0.00 0.00 28 1008.3
20260503201007 63 294 8.7 12.2 0.00 0.00 0.00 28 1008.4
20260503200509 63 293 4.3 12.2 0.00 0.00 0.00 29 1008.5
20260503200026 63 273 7.8 12.2 0.00 0.00 0.00 29 1008.5
20260503195506 63 288 7.8 12.2 0.00 0.00 0.00 30 1008.7
20260503195005 62 295 7.0 13.0 0.00 0.00 0.00 29 1008.7
20260503194518 62 266 6.1 15.6 0.00 0.00 0.00 28 1008.7
20260503194004 62 279 7.8 15.6 0.00 0.00 0.00 29 1008.8
20260503193506 62 255 7.0 13.0 0.00 0.00 0.00 28 1008.8
20260503193015 62 275 6.1 13.9 0.00 0.00 0.00 29 1008.9
20260503192507 63 287 5.2 13.9 0.00 0.00 0.00 28 1008.9
20260503192006 63 330 7.8 13.9 0.00 0.00 0.00 29 1009.0
20260503191521 62 290 8.7 15.6 0.00 0.00 0.00 29 1009.0
20260503191013 63 281 11.3 15.6 0.00 0.00 0.00 28 1009.1
20260503190509 62 279 6.1 15.6 0.00 0.00 0.00 29 1009.1
20260503190025 61 281 8.7 16.5 0.00 0.00 0.00 30 1009.2
20260503185513 61 254 9.6 16.5 0.00 0.00 0.00 30 1009.1
20260503185006 61 298 7.0 15.6 0.00 0.00 0.00 30 1009.3
20260503184509 62 314 8.7 14.8 0.00 0.00 0.00 31 1009.2
20260503184004 62 262 7.0 13.0 0.00 0.00 0.00 31 1009.3
20260503183504 63 323 3.5 13.9 0.00 0.00 0.00 32 1009.4
20260503183012 64 305 3.5 13.9 0.00 0.00 0.00 28 1009.5
20260503182509 64 322 4.3 13.9 0.00 0.00 0.00 35 1009.6
20260503182009 63 323 2.6 12.2 0.00 0.00 0.00 32 1009.6
20260503181520 62 333 5.2 13.0 0.00 0.00 0.00 31 1009.6
20260503181006 62 301 5.2 13.0 0.00 0.00 0.00 32 1009.7
20260503180512 62 311 4.3 13.0 0.00 0.00 0.00 30 1009.8
20260503180029 62 293 7.0 12.2 0.00 0.00 0.00 30 1009.8
20260503175509 62 287 3.5 12.2 0.00 0.00 0.00 32 1009.9
20260503175010 61 292 6.1 12.2 0.00 0.00 0.00 31 1010.1
20260503174529 61 360 5.2 15.6 0.00 0.00 0.00 30 1010.1
20260503174007 61 342 6.1 15.6 0.00 0.00 0.00 31 1010.3
20260503173504 60 333 5.2 13.9 0.00 0.00 0.00 32 1010.4
20260503173015 60 306 5.2 12.2 0.00 0.00 0.00 31 1010.5
20260503172507 60 329 7.0 13.9 0.00 0.00 0.00 31 1010.7
20260503172007 60 259 5.2 13.9 0.00 0.00 0.00 32 1010.6
20260503171519 59 292 8.7 13.9 0.00 0.00 0.00 32 1010.6
20260503171011 59 295 7.8 13.9 0.00 0.00 0.00 31 1010.9
20260503170509 59 344 5.2 13.9 0.00 0.00 0.00 32 1010.9
20260503151004 54 310 2.6 7.8 0.00 0.00 0.00 38 1011.0
20260503150509 54 309 3.5 11.3 0.00 0.00 0.00 36 1011.1
20260503131010 47 337 3.5 8.7 0.00 0.00 0.00 62 1010.7
20260503130513 47 279 3.5 8.7 0.00 0.00 0.00 63 1010.7
20260503110508 40 296 0.9 2.6 0.00 0.00 0.00 88 1009.5
20260503090509 42 281 0.0 1.7 0.00 0.00 0.00 83 1009.6
20260503081527 43 195 0.0 1.7 0.00 0.00 0.00 80 1009.4
20260503081009 43 195 0.9 1.7 0.00 0.00 0.00 79 1009.4
20260503080508 44 136 0.0 1.7 0.00 0.00 0.00 78 1009.4
20260503072505 46 136 0.0 1.7 0.00 0.00 0.00 74 1009.7
20260503072007 47 136 0.0 0.0 0.00 0.00 0.00 74 1009.7
20260503071519 47 136 0.0 0.0 0.00 0.00 0.00 74 1009.8
20260503071006 47 136 0.0 0.0 0.00 0.00 0.00 74 1009.8
20260503070509 47 136 0.0 0.0 0.00 0.00 0.00 74 1009.8